[[{"header":{"parameterUnit":"m.s-1","parameterCategory":1,"la1":30.2991,"la2":30.254,"lo1":-89.0895,"lo2":-89.0444,"dy":0.0017,"dx":0.0017,"nx":28,"ny":28,"refTime":"2025-02-26T09:00:00:Z","depth":0,"parameterNumber":2,"parameterNumberName":"U-component_of_WINDS"},"data":[0,0,0,0,0,0,0,0,0,0,0,0,0,0,0,0,0,0,0,0,0,0,0,0,0,0,0,0,0,0,0,0,0,0,0,0,0,0,0,0,0,0,0,0,0,0,0,0,0,0,0,0,0,0,0,0,0,0,2.8428,2.8428,0,2.8444,2.8444,2.8445,2.84,2.8399,2.8397,2.8396,2.8414,2.8416,2.8417,0,0,0,0,0,0,0,0,0,0,0,0,0,2.8362,2.8364,2.8428,2.8428,2.8429,2.8444,2.8444,2.8445,2.84,2.8398,2.8397,2.8395,2.8413,2.8415,2.8418,0,0,0,0,0,0,0,0,0,0,0,0,0,2.8386,2.8364,2.8428,2.8408,2.8407,2.8444,2.8444,2.8445,2.8401,2.8398,2.8396,2.8394,2.8413,2.8415,2.8418,2.8476,0,0,2.8426,2.8427,0,0,0,0,0,0,0,0,2.8385,2.8389,2.8411,2.841,2.8408,2.8418,2.8428,2.8455,2.8401,2.8403,2.8396,2.8393,2.8417,2.8419,2.8427,2.8477,2.8477,2.8426,2.8428,2.8429,2.843,0,0,0,0,0,0,0,2.8383,2.8388,2.8434,2.8411,2.8409,2.84,2.8401,2.8433,2.8421,2.8403,2.8399,2.8402,2.8416,2.8424,2.8427,2.8478,2.8426,2.8428,2.843,2.8431,2.8581,2.8583,0,0,0,0,0,0,2.8384,2.8387,2.8434,2.8435,2.8391,2.8403,2.8404,2.8417,2.8421,2.842,2.8404,2.84,2.8421,2.8424,2.8427,2.8498,2.8429,2.8431,2.8433,2.8578,2.8581,2.8584,0,0,0,0,0,0,2.8383,2.8388,2.8433,2.841,2.8415,2.8406,2.8421,2.8418,2.8427,2.8422,2.842,2.8414,2.8419,2.8424,2.8465,2.8498,2.8433,2.8435,2.8575,2.8579,2.8582,2.8639,0,0,0,0,0,0,2.8381,2.8388,2.8409,2.8411,2.8416,2.847,2.8423,2.842,2.8431,2.8426,2.8431,2.843,2.8418,2.8461,2.8468,2.8501,2.8437,2.8572,2.8577,2.8581,2.8634,2.8644,2.8653,0,0,0,0,0,2.8379,2.8424,2.841,2.8416,2.8442,2.8472,2.8475,2.846,2.8434,2.8456,2.8453,2.843,2.8494,2.8466,2.8473,2.8507,2.857,2.8576,2.8581,2.863,2.8642,2.8653,0,0,0,0,0,0,2.8426,2.8424,2.8408,2.8455,2.8464,2.8464,2.8491,2.8472,2.8489,2.8484,2.8465,2.8466,2.8512,2.8513,2.8483,2.8566,2.8528,2.8535,2.8563,2.8574,2.8584,2.8583,2.8439,0,0,0,0,0,2.8442,2.8465,2.8462,2.8504,2.8509,2.85,2.8512,2.85,2.8508,2.8511,2.8512,2.8521,2.8544,2.8559,2.8579,2.8634,2.8637,2.8662,2.8671,2.8679,2.8685,2.8718,2.873,2.8601,2.8601,2.8601,0,0,2.8475,2.8476,2.8492,2.8514,2.8519,2.8545,2.8503,2.8531,2.8551,2.8516,2.8556,2.8557,2.8566,2.8616,2.8638,2.8619,2.8722,2.8686,2.8692,2.8694,2.8725,2.8737,2.8748,2.8605,2.8604,2.8604,0,0,2.8549,2.8551,2.8588,2.8595,2.8604,2.8598,2.8607,2.861,2.861,2.8649,2.8624,2.8648,2.8686,2.8696,2.8705,2.8787,2.8767,2.8794,2.8843,2.8875,2.8885,2.8894,2.8926,2.8937,2.88,2.8801,2.8801,0,2.8589,2.8626,2.8609,2.8641,2.8652,2.8622,2.8661,2.8668,2.8683,2.8693,2.8671,2.8721,2.8725,2.8778,2.8799,2.8807,2.8818,2.8793,2.8885,2.8894,2.8902,2.8932,2.8944,2.8804,2.8804,2.8803,2.8803,0,2.8676,2.8703,2.8732,2.8749,2.8763,2.8798,2.8788,2.8805,2.8793,2.879,2.8832,2.8837,2.8859,2.8871,2.8858,2.8923,2.8911,2.8888,2.8849,2.8918,2.8946,2.8957,2.8809,2.8808,2.8807,2.8806,0,0,2.8779,2.8788,2.8799,2.8807,2.8817,2.8838,2.8873,2.8895,2.8911,2.8923,2.8954,2.8989,2.8968,2.8979,2.8968,2.8996,2.9064,2.8969,2.8969,2.8989,2.914,2.9159,2.9172,2.9051,2.9053,2.9055,2.914,0,2.8853,2.8912,2.89,2.8959,2.8985,2.8959,2.899,2.9,2.8999,2.9022,2.9021,2.9047,2.9016,2.9023,2.905,2.905,2.9095,2.9044,2.9081,2.9083,2.9081,2.9186,2.9205,2.9285,2.915,2.9152,2.9153,0,2.8948,2.8965,2.9027,2.9035,2.9046,2.9074,2.9095,2.9117,2.9129,2.9127,2.9141,2.9125,2.9163,2.9124,2.9176,2.9142,2.9157,2.916,2.9163,2.9166,2.9123,2.9195,2.931,2.9322,2.917,2.9169,2.9167,0,2.9019,2.9058,2.9101,2.9109,2.9119,2.914,2.9145,2.9155,2.917,2.9189,2.92,2.9223,2.9236,2.9255,2.9247,2.9219,2.9302,2.9262,2.9303,2.9303,2.9322,2.9321,2.9443,2.9329,2.9329,2.9329,2.9329,0,2.9104,2.9144,2.9133,2.916,2.9204,2.9191,2.9235,2.9238,2.9248,2.9276,2.9255,2.9282,2.9269,2.9296,2.929,2.9336,2.9342,2.9342,2.934,2.9345,2.9345,2.9355,2.9349,2.9332,2.9331,2.9331,2.933,0,2.9191,2.9185,2.9231,2.9238,2.9241,2.9274,2.928,2.9306,2.9305,2.9341,2.9348,2.9346,2.9377,2.9371,2.9405,2.9401,2.946,2.945,2.9456,2.9454,2.9496,2.9493,2.9629,2.9648,2.9521,2.9522,2.9523,0,2.9246,2.9276,2.9288,2.9305,2.9312,2.934,2.9356,2.9345,2.9363,2.9382,2.9406,2.9435,2.9458,2.9509,2.9511,2.9538,2.953,2.9576,2.9534,2.9539,2.9533,2.9532,2.9536,2.9585,2.9586,2.9587,2.9588,0,2.9346,2.9343,2.9366,2.939,2.941,2.9428,2.9445,2.946,2.9451,2.9473,2.9504,2.9522,2.9558,2.9588,2.9614,2.9621,2.9605,2.9602,2.9613,2.9618,2.9621,2.9622,2.948,2.9599,2.9598,2.9597,2.9596,2.9596,2.942,2.9446,2.9459,2.9488,2.9499,2.9516,2.9541,2.9544,2.957,2.9598,2.9591,2.9627,2.9643,2.9675,2.9686,2.9716,2.9699,2.9715,2.9719,2.9723,2.9729,2.9616,2.972,2.972,2.972,2.972,2.9719,0,2.952,2.9527,2.9554,2.9578,2.9601,2.9583,2.9601,2.9622,2.9655,2.967,2.9694,2.9732,2.9762,2.9768,2.9798,2.9821,2.9814,2.9829,2.9828,2.983,2.9742,2.973,2.9834,2.9834,2.9834,2.9834,2.9834,2.9834,2.9574,2.962,2.9618,2.967,2.9678,2.9714,2.9726,2.9743,2.9755,2.9799,2.9824,2.9828,2.9841,2.9871,2.9899,2.99,2.9913,2.9932,2.993,2.9847,2.9836,2.9825,2.9814,2.9934,2.9934,3.0016,3.0017,3.0017]},{"header":{"parameterUnit":"m.s-1","parameterCategory":1,"la1":30.2991,"la2":30.254,"lo1":-89.0895,"lo2":-89.0444,"dy":0.0017,"dx":0.0017,"nx":28,"ny":28,"refTime":"2025-02-26T09:00:00:Z","depth":0,"parameterNumber":3,"parameterNumberName":"V-component_of_WINDS"},"data":[0,0,0,0,0,0,0,0,0,0,0,0,0,0,0,0,0,0,0,0,0,0,0,0,0,0,0,0,0,0,0,0,0,0,0,0,0,0,0,0,0,0,0,0,0,0,0,0,0,0,0,0,0,0,0,0,0,0,1.6168,1.617,0,1.6332,1.6334,1.6336,1.6302,1.6299,1.6296,1.6293,1.6459,1.6466,1.6474,0,0,0,0,0,0,0,0,0,0,0,0,0,1.5821,1.5828,1.6168,1.617,1.6172,1.6332,1.6334,1.6336,1.6302,1.6299,1.6295,1.6291,1.6457,1.6466,1.6474,0,0,0,0,0,0,0,0,0,0,0,0,0,1.5977,1.583,1.6168,1.6175,1.6177,1.6331,1.6334,1.6337,1.6303,1.6298,1.6294,1.629,1.6454,1.6465,1.6475,1.6633,0,0,1.6509,1.6513,0,0,0,0,0,0,0,0,1.5968,1.599,1.6172,1.6174,1.6177,1.6292,1.6272,1.6436,1.6304,1.6255,1.6293,1.6288,1.6407,1.6422,1.6462,1.6641,1.6648,1.651,1.6516,1.6521,1.6524,0,0,0,0,0,0,0,1.5957,1.5982,1.6233,1.6174,1.6178,1.6168,1.6185,1.6303,1.6354,1.6259,1.6257,1.6277,1.6408,1.6452,1.6466,1.665,1.6509,1.6519,1.6526,1.653,1.6958,1.6962,0,0,0,0,0,0,1.5944,1.5974,1.6228,1.6238,1.6059,1.6178,1.6197,1.626,1.6353,1.6363,1.6281,1.6275,1.6435,1.6453,1.6472,1.6656,1.6521,1.6531,1.6537,1.6953,1.6959,1.6964,0,0,0,0,0,0,1.5937,1.5968,1.6221,1.6105,1.6137,1.6188,1.6259,1.6265,1.6309,1.6369,1.6378,1.6316,1.6433,1.6456,1.6591,1.6662,1.6536,1.6546,1.6947,1.6955,1.6961,1.7031,0,0,0,0,0,0,1.5927,1.5965,1.6027,1.6107,1.6143,1.634,1.6264,1.6272,1.6328,1.6322,1.6405,1.6415,1.6431,1.6575,1.6602,1.6675,1.6554,1.6941,1.695,1.6959,1.7023,1.704,1.7055,0,0,0,0,0,1.5915,1.6042,1.6031,1.6061,1.6222,1.6344,1.6365,1.6381,1.6334,1.6395,1.6433,1.6412,1.665,1.6589,1.6619,1.6696,1.6937,1.6948,1.6958,1.7015,1.7036,1.7054,0,0,0,0,0,0,1.597,1.6052,1.6041,1.6198,1.6264,1.6338,1.6417,1.6404,1.6485,1.6476,1.6492,1.6511,1.6647,1.6686,1.6616,1.6849,1.6786,1.6804,1.6819,1.684,1.6856,1.6842,1.6563,0,0,0,0,0,1.6,1.6094,1.6161,1.6292,1.6326,1.6365,1.642,1.6426,1.6495,1.6523,1.6571,1.6638,1.6727,1.6786,1.6872,1.7028,1.7043,1.7095,1.7111,1.7124,1.7138,1.7217,1.7239,1.7,1.7,1.6999,0,0,1.6064,1.612,1.6179,1.6304,1.6357,1.645,1.6389,1.6493,1.6562,1.6539,1.6668,1.6705,1.6781,1.6925,1.6991,1.6961,1.7207,1.7138,1.7148,1.7155,1.723,1.7253,1.7273,1.7007,1.7006,1.7005,0,0,1.6227,1.6281,1.6394,1.6446,1.6525,1.655,1.6576,1.6652,1.6675,1.6805,1.6787,1.6869,1.7024,1.7077,1.7124,1.73,1.7282,1.7328,1.741,1.7487,1.7506,1.7522,1.758,1.7601,1.7342,1.7342,1.7343,0,1.6296,1.6438,1.6453,1.6556,1.661,1.6592,1.6703,1.6753,1.6857,1.6893,1.6858,1.7047,1.7098,1.7251,1.7293,1.7334,1.7361,1.7318,1.7502,1.7519,1.7535,1.759,1.7612,1.7347,1.7347,1.7346,1.7346,0,1.6516,1.6614,1.6695,1.6793,1.6856,1.6963,1.6991,1.7053,1.7052,1.7079,1.7208,1.7267,1.7361,1.7399,1.7401,1.7551,1.7528,1.7498,1.7434,1.7562,1.7613,1.7635,1.7354,1.7352,1.7351,1.735,0,0,1.672,1.6821,1.685,1.6891,1.6975,1.705,1.7154,1.7246,1.7296,1.7367,1.7451,1.758,1.755,1.7603,1.761,1.7678,1.7806,1.7638,1.764,1.7663,1.7968,1.7988,1.8013,1.7796,1.78,1.7803,1.796,0,1.6887,1.7071,1.7084,1.7249,1.7337,1.7319,1.7408,1.7467,1.7495,1.7571,1.7601,1.769,1.7647,1.7677,1.7744,1.7777,1.7867,1.7766,1.7871,1.7874,1.7849,1.8041,1.8064,1.821,1.7981,1.7985,1.7987,0,1.7107,1.7181,1.7354,1.7419,1.7457,1.7538,1.7619,1.7694,1.7759,1.7773,1.783,1.7826,1.7929,1.7863,1.8002,1.7932,1.7976,1.7998,1.8004,1.8012,1.7937,1.805,1.8257,1.8277,1.802,1.8018,1.8015,0,1.7232,1.7376,1.7496,1.7533,1.7614,1.767,1.7706,1.7766,1.7818,1.7889,1.7922,1.8005,1.8049,1.8112,1.8128,1.808,1.8265,1.8202,1.8276,1.8276,1.8315,1.8312,1.8528,1.8349,1.8349,1.8348,1.8348,0,1.7415,1.752,1.7552,1.7627,1.7742,1.7755,1.7869,1.7901,1.7954,1.8031,1.8021,1.8093,1.8113,1.8188,1.8202,1.8311,1.8333,1.8345,1.8346,1.8344,1.8341,1.837,1.8359,1.8354,1.8353,1.8352,1.8351,0,1.7574,1.7601,1.7729,1.7794,1.7812,1.7894,1.7947,1.8016,1.804,1.8138,1.8161,1.8199,1.8286,1.8309,1.8414,1.8423,1.855,1.8545,1.8528,1.8527,1.8599,1.859,1.8838,1.8869,1.8673,1.8675,1.8677,0,1.7687,1.7767,1.7839,1.7889,1.7927,1.801,1.8062,1.8077,1.8131,1.8207,1.8266,1.8351,1.842,1.8559,1.8594,1.8672,1.8666,1.8747,1.8678,1.867,1.8662,1.8655,1.8661,1.876,1.8762,1.8764,1.8765,0,1.7884,1.7892,1.7968,1.8046,1.8108,1.8172,1.8232,1.8274,1.8296,1.8357,1.8445,1.8498,1.8603,1.8686,1.8764,1.8798,1.8784,1.8787,1.8807,1.8804,1.8789,1.8793,1.856,1.8781,1.8779,1.8778,1.8777,1.8776,1.8021,1.8088,1.8147,1.8231,1.8277,1.8332,1.8398,1.8429,1.8503,1.8589,1.8593,1.8687,1.8744,1.8847,1.8885,1.8957,1.8932,1.8964,1.8971,1.8977,1.8981,1.878,1.8972,1.8971,1.8971,1.8971,1.897,0,1.8212,1.8248,1.8325,1.8408,1.8472,1.8453,1.8517,1.8571,1.8654,1.8709,1.8776,1.8874,1.8953,1.8993,1.907,1.9119,1.9114,1.9139,1.9134,1.9141,1.9001,1.8973,1.9141,1.9141,1.9141,1.9141,1.9141,1.9141,1.832,1.8431,1.8445,1.8578,1.8613,1.8705,1.8742,1.8791,1.8834,1.8944,1.9009,1.9035,1.9082,1.9162,1.9232,1.9241,1.9268,1.9295,1.93,1.9169,1.9151,1.9135,1.9108,1.9302,1.9302,1.9433,1.9435,1.9436]}]]